Weather History for Gunnison, CO

Change the Weather History Date:

Friday, January 4, 2013

  Actual Average Record
Temperature  
Mean Temperature -8 °F -  
Max Temperature 8 °F 24 °F 44 °F (2007)
Min Temperature -23 °F 0 °F -23 °F (2013)
Degree Days  
Heating Degree Days 72    
Moisture  
Dew Point -19 °F    
Average Humidity 54    
Maximum Humidity 100    
Minimum Humidity 24    
Precipitation  
Precipitation 0.00 in - - ()
Sea Level Pressure  
Sea Level Pressure 30.27 in    
Wind  
Wind Speed 1 mph (NE)    
Max Wind Speed 6 mph    
Max Gust Speed -    
Visibility 10 miles    
Events      
Averages and records for this station are not official NWS values.
T = Trace of Precipitation, MM = Missing Value Source: NWS Daily Summary

Daily Weather History Graph

Daily Weather History Graph

Search for Another Location

Airport:

Trip Planner

Search our weather history database for the weather conditions in past years. The results will help you decide how hot, cold, wet, or windy it might be!

Date:

Astronomy

Jan. 04, 2013 Rise Set
Actual Time 7:25 AM MST 5:00 PM MST
Civil Twilight 6:56 AM MST 5:29 PM MST
Nautical Twilight 6:23 AM MST 6:02 PM MST
Astronomical Twilight 5:50 AM MST 6:35 PM MST
Moon No Moon Rise 11:15 AM MST (1/4)
Length of Visible Light 10h 33m
Length of Day
9h 34m
Waning Gibbous, 54% of the Moon is Illuminated
Jan 4
Waning Gibbous
Jan 4
Last Quarter
Jan 11
New
Jan 18
First Quarter
Jan 26
Full

Hourly Weather History & Observations

Time (MST) Temp. Windchill Dew Point Humidity Pressure Visibility Wind Dir Wind Speed Gust Speed Precip Events Conditions
12:35 AM -16.6 °F -29.3 °F -27.4 °F 58% 30.34 in 10.0 mi ENE 4.6 mph - N/A   Clear
12:55 AM -18.4 °F - - N/A% 30.34 in 10.0 mi Calm Calm - N/A   Clear
1:35 AM -18.4 °F - - N/A% 30.34 in 10.0 mi Calm Calm - N/A   Clear
1:55 AM -18.4 °F - -29.2 °F 58% 30.34 in 10.0 mi Calm Calm - N/A   Clear
2:15 AM -20.2 °F - - N/A% 30.34 in 10.0 mi Calm Calm - N/A   Clear
2:35 AM -20.2 °F - - N/A% 30.34 in 10.0 mi Calm Calm - N/A   Clear
2:55 AM -18.4 °F - -27.4 °F 63% 30.35 in 10.0 mi Calm Calm - N/A   Clear
3:15 AM -18.4 °F - -27.4 °F 63% 30.34 in 10.0 mi Calm Calm - N/A   Clear
3:35 AM -20.2 °F - - N/A% 30.34 in 10.0 mi Calm Calm - N/A   Clear
3:55 AM -20.2 °F - - N/A% 30.34 in 10.0 mi Calm Calm - N/A   Clear
4:35 AM -20.2 °F - - N/A% 30.34 in 10.0 mi Calm Calm - N/A   Clear
4:55 AM -22.0 °F - - N/A% 30.34 in 10.0 mi Calm Calm - N/A   Clear
5:15 AM -23.8 °F -35.0 °F - N/A% 30.34 in 10.0 mi ENE 3.5 mph - N/A   Clear
5:35 AM -23.8 °F - - N/A% 30.34 in 10.0 mi Calm Calm - N/A   Clear
5:55 AM -20.2 °F - -29.2 °F 63% 30.34 in 10.0 mi Calm Calm - N/A   Clear
6:15 AM -22.0 °F -35.6 °F - N/A% 30.34 in 10.0 mi NE 4.6 mph - N/A   Clear
6:35 AM -22.0 °F - - N/A% 30.34 in 10.0 mi Calm Calm - N/A   Clear
6:55 AM -23.8 °F -35.0 °F - N/A% 30.35 in 10.0 mi ENE 3.5 mph - N/A   Clear
7:35 AM -22.0 °F - -29.2 °F 69% 30.36 in 10.0 mi Calm Calm - N/A   Clear
7:55 AM -22.0 °F - -29.2 °F 69% 30.36 in 10.0 mi Calm Calm - N/A   Clear
8:35 AM -22.0 °F - - N/A% 30.37 in 10.0 mi Calm Calm - N/A   Clear
8:55 AM -18.4 °F - -18.4 °F 100% 30.37 in 9.0 mi Calm Calm - N/A   Clear
9:15 AM -18.4 °F - - N/A% 30.37 in 10.0 mi Calm Calm - N/A   Clear
9:35 AM -18.4 °F - - N/A% 30.37 in 10.0 mi Calm Calm - N/A   Clear
9:55 AM -16.6 °F - - N/A% 30.37 in 10.0 mi Calm Calm - N/A   Clear
10:15 AM -11.2 °F - - N/A% 30.36 in 10.0 mi Calm Calm - N/A   Clear
10:35 AM -11.2 °F -20.6 °F - N/A% 30.35 in 10.0 mi East 3.5 mph - N/A   Clear
10:55 AM -9.4 °F - -27.4 °F 41% 30.34 in 10.0 mi Calm Calm - N/A   Clear
11:35 AM -5.8 °F - -20.2 °F 50% 30.31 in 10.0 mi Calm Calm - N/A   Clear
11:55 AM -5.8 °F - -18.4 °F 55% 30.29 in 10.0 mi Calm Calm - N/A   Clear
12:15 PM -2.2 °F - -16.6 °F 50% 30.27 in 10.0 mi Calm Calm - N/A   Clear
12:55 PM -0.4 °F - -11.2 °F 60% 30.23 in 10.0 mi Calm Calm - N/A   Clear
1:15 PM 1.4 °F - -7.6 °F 66% 30.22 in 10.0 mi Calm Calm - N/A   Clear
1:35 PM 3.2 °F - -9.4 °F 56% 30.21 in 10.0 mi Calm Calm - N/A   Clear
1:55 PM 3.2 °F - -11.2 °F 51% 30.20 in 10.0 mi Calm Calm - N/A   Clear
2:15 PM 3.2 °F - -7.6 °F 61% 30.19 in 10.0 mi Calm Calm - N/A   Clear
2:35 PM 3.2 °F - -9.4 °F 56% 30.18 in 10.0 mi Calm Calm - N/A   Clear
2:55 PM 5.0 °F -2.1 °F -7.6 °F 56% 30.18 in 10.0 mi ESE 3.5 mph - N/A   Clear
3:15 PM 5.0 °F - -5.8 °F 61% 30.18 in 10.0 mi Calm Calm - N/A   Clear
3:35 PM 8.6 °F - -2.2 °F 62% 30.17 in 10.0 mi Calm Calm - N/A   Clear
3:55 PM 6.8 °F - -13.0 °F 40% 30.17 in 10.0 mi Calm Calm - N/A   Clear
4:15 PM 8.6 °F 0.1 °F -5.8 °F 52% 30.17 in 10.0 mi NNE 4.6 mph - N/A   Clear
4:55 PM 8.6 °F 2.0 °F -7.6 °F 48% 30.16 in 10.0 mi North 3.5 mph - N/A   Clear
5:15 PM 6.8 °F - -7.6 °F 52% 30.16 in 10.0 mi Calm Calm - N/A   Clear
5:35 PM 1.4 °F - -13.0 °F 51% 30.17 in 10.0 mi Calm Calm - N/A   Clear
5:55 PM 1.4 °F - -16.6 °F 43% 30.17 in 10.0 mi Calm Calm - N/A   Clear
6:15 PM -0.4 °F - -23.8 °F 32% 30.18 in 10.0 mi Calm Calm - N/A   Clear
6:35 PM -0.4 °F -8.3 °F - N/A% 30.18 in 10.0 mi North 3.5 mph - N/A   Clear
6:55 PM -2.2 °F - -31.0 °F 24% 30.19 in 10.0 mi Calm Calm - N/A   Clear
7:15 PM -4.0 °F - -29.2 °F 29% 30.19 in 10.0 mi Calm Calm - N/A   Clear
7:35 PM -2.2 °F - -25.6 °F 32% 30.20 in 10.0 mi Calm Calm - N/A   Clear
7:55 PM -4.0 °F - -23.8 °F 38% 30.20 in 10.0 mi Calm Calm - N/A   Clear
8:15 PM -4.0 °F - -20.2 °F 46% 30.20 in 10.0 mi Calm Calm - N/A   Clear
8:35 PM -7.6 °F - -20.2 °F 54% 30.21 in 10.0 mi Calm Calm - N/A   Clear
8:55 PM -9.4 °F - -25.6 °F 45% 30.22 in 10.0 mi Calm Calm - N/A   Clear
9:15 PM -7.6 °F - -14.8 °F 71% 30.22 in 10.0 mi Calm Calm - N/A   Clear
9:35 PM -9.4 °F - -25.6 °F 45% 30.22 in 10.0 mi Calm Calm - N/A   Clear
9:55 PM -11.2 °F - -18.4 °F 70% 30.23 in 10.0 mi Calm Calm - N/A   Clear
10:15 PM -11.2 °F - -23.8 °F 54% 30.24 in 10.0 mi Calm Calm - N/A   Clear
10:35 PM -11.2 °F - -20.2 °F 64% 30.25 in 10.0 mi Calm Calm - N/A   Clear
10:55 PM -11.2 °F - -23.8 °F 54% 30.25 in 10.0 mi Calm Calm - N/A   Clear
11:15 PM -11.2 °F -24.8 °F -25.6 °F 49% 30.25 in 8.0 mi ENE 5.8 mph - N/A   Clear
11:35 PM -13.0 °F - -23.8 °F 59% 30.25 in 9.0 mi Calm Calm - N/A   Clear
11:55 PM -14.8 °F - - N/A% 30.25 in 10.0 mi Calm Calm - N/A   Clear